Showing default

GALILEO 22 (2C8), 43058

Orbit data source: Space-Track

GALILEO 22 (2C8), 43058 is a payload satellite owned by GNSS Agency (ESA) that was launched on Tue, 12 Dec 2017 UTC via an ARIANE 5ES launch vehicle from the French Guiana (FRGUI). Payload-class satellites include a variety of spacecraft equipped with specific instruments for various scientific and technological missions. These include communications satellites like Starlink; space stations such as the ISS; scientific satellites like the Hubble; Earth observation satellites from companies like Planet Labs, Umbra, and HawkEye 360; GPS; miniature CubeSats for education and research; and military/defense satellites.

Loading next visibility...
Identifier
43058, 2017-079D
Orbit
Active
Last TLE update
21 hours ago
Origin
Manufacturer
OHB
Mission
Operational Civil Navigation
Bus & Motor
GALILEOSAT, AOCS
Mass
715 kg wet, 700 kg dry
Launch date (UTC)
2017-12-12 (8 years ago)
Launch vehicle
ARIANE 5ES
Launch site
French Guiana (FRGUI)
Object type
Payload
Rocket body
Debris
Shape & HBR
Box + 2 Pan, 14.71 m
Radar Cross Section
9.223 m², Large (>1 m²)

Expand to show TLE details & history

TLE from 21 hours ago
0 GALILEO 22 (2C8)
1 43058U 17079D   25182.38481906  .00000027  00000-0  00000-0 0  9990
2 43058  55.1857 231.1545 0005189 266.6391  93.3772  1.70474670 47031
Epoch: 2025-07-01T09:14Z
TLE epoch observation values (Epoch: 2025-07-01T09:14:08.366Z)
Latitude
-0.00005°
Longitude
172.95305°
Altitude
23,223.284 km
Speed
3.67 km/s
True Right ascension
15h 24m 40s
True Declination
0° 00' 00"
Sunlit
Object was in daylight at epoch
Visualization orbit readout
Latitude
8.10536°
Longitude
-12.74865°
Altitude
23,223.457 km
Speed
3.67 km/s
Apparent Right ascension
03h 23m 22s
Apparent Declination
0° 10' 01"
Sunlit
Object is in daylight
Visualization observer readout
Local Sidereal Time
17:39:48
Azimuth
46.424° ENE
Elevation
-39.286°
Doppler factor
1
Orbital elements
Apogee altitude
23,237.467 km
Perigee altitude
23,206.748 km
Semi-major axis
29,600.244 km
Eccentricity
0.00052
Inclination
55.1857°
RAAN
231.1545°
Arg. of periapsis
266.6391°
True anomaly
Unknown
Mean anomaly
93.3772°
Eccentric anomaly
Unknown
Mean motion
0.42619 °/min
Orbital period
844.7 mins
BSTAR
0
Loading maneuver chart data...
Loading SW <> Apogee altitude chart data...
Loading historical data...
Loading historical data...
Loading historical data...
Loading historical data...
Loading historical data...
Loading historical data...
Loading historical data...
Other satellites on launch #79 in the year 2017 (2017-12-12 UTC)

GALILEO 22 (2C8) Visibility forecast

Observer location: undefined°, undefined°

Span
Click to sort rows by Start time (UTC) header in descending order
Start Az.
Max El. time (UTC)
Max El. Az.
Max El.
End time (UTC)
End Az.
176 mins2025-07-02 16:53:09.056Z324.301° NNW2025-07-02 18:20:09.056Z298.866° NW20.255°2025-07-02 19:49:09.056Z268.129° W
229 mins2025-07-03 02:09:09.056Z178.304° S2025-07-03 05:22:09.056Z106.845° ESE44.758°2025-07-03 05:58:09.056Z49.278° ENE
|